Regional Weather Roundup
Issued by NWS Burlington, VT

Home | Current Version | Previous Version | Text Only | Print | Product List | Glossary On
Versions: 1 2 3 4 5 6 7 8 9 10 11 12 13 14 15 16 17 18 19 20 21 22 23 24 25 26 27 28 29 30 31 32 33 34 35 36 37 38 39 40 41 42 43 44 45 46 47 48 49 50
000
ASUS41 KBTV 260230
RWRBTV
VERMONT REGIONAL WEATHER ROUNDUP
NATIONAL WEATHER SERVICE BURLINGTON VT
1000 PM EDT FRI MAY 25 2018

NOTE: "FAIR" INDICATES FEW OR NO CLOUDS BELOW 12,000 FEET WITH NO
SIGNIFICANT WEATHER AND/OR OBSTRUCTIONS TO VISIBILITY.

* THESE REPORTS ARE NOT UNDER NWS QUALITY CONTROL AND/OR DO NOT
  REPORT WEATHER SUCH AS PRECIPITATION AND FOG.

VTZ001>019-260300-
_____VERMONT_____


CITY           SKY/WX    TMP DP  RH WIND       PRES   REMARKS
BURLINGTON     LGT RAIN  66  61  84 E6        29.74R
MONTPELIER     MOCLDY    66  57  72 CALM      29.80S
MORRISVILLE    CLOUDY    67  57  70 VRB5      29.77R
ST. JOHNSBURY*   N/A     71  56  58 MISG      29.71F
LYNDONVILLE*   CLOUDY    68  52  57 SW12G21   29.76F
MIDDLEBURY*    CLOUDY    65  57  75 CALM      29.74F
RUTLAND*       CLOUDY    68  57  68 CALM      29.77F
SPRINGFIELD    FAIR      76  51  41 SW5       29.76S
HIGHGATE*      DRIZZLE   64  61  91 S6        29.71F
NEWPORT*       DRIZZLE   66  56  69 W15G22    29.72F
BENNINGTON     FAIR      61  55  81 S5        29.80S
ISLAND POND*     N/A     70 N/A N/A W8          N/A
GALLUP MILLS*    N/A     68 N/A N/A MISG        N/A
UNION VILLAGE*   N/A     68 N/A N/A MISG        N/A
MT. MANSFIELD*   N/A     54 N/A N/A W38         N/A

_____LAKE CHAMPLAIN_____


CITY           SKY/WX    TMP DP  RH WIND       PRES   REMARKS
BURTON ISLAND*   N/A     64  61  88 MISG        N/A
COLCHESTER RF*   N/A     64  55  72 N3          N/A
DIAMOND ISL*     N/A     72  54  53 N1          N/A

$$

NYZ007-026>031-035-052-083-087-260300-
_____NORTHERN NEW YORK_____


CITY           SKY/WX    TMP DP  RH WIND       PRES   REMARKS
PLATTSBURGH    CLOUDY    66  59  78 W5        29.72S
SARANAC LAKE   CLOUDY    59  59 100 CALM      29.78F
MASSENA        CLOUDY    63  61  93 S6        29.72F
OGDENSBURG*    FAIR      64  59  83 S6        29.72F
POTSDAM*       CLOUDY    61  59  94 S5        29.73F
STARK FALLS*     N/A     63 N/A N/A SW7         N/A
WATERTOWN      MOCLDY    65  51  60 SW3       29.77S
FT DRUM        MOCLDY    71  47  41 SW9G18    29.77R
ALBANY         FAIR      71  53  52 S3        29.78R
GLENS FALLS    FAIR      72  54  53 S6        29.75S

$$
NHZ002-005-011-260300-
_____NEW HAMPSHIRE_____


CITY           SKY/WX    TMP DP  RH WIND       PRES   REMARKS
LEBANON        MOCLDY    67  58  72 CALM      29.75F
KEENE          FAIR      68  53  58 S3        29.78R
MT WASHINGTON  LGT RAIN  46  46 100 W51G61      N/A  VSB 0
PLYMOUTH       CLOUDY    72  54  52 CALM      29.73F
WHITEFIELD     CLOUDY    72  56  57 W10       29.75R

$$

_____REGIONAL QUEBEC LOCATIONS_____


CITY           SKY/WX    TMP DP  RH WIND       PRES   REMARKS
MONTREAL       CLOUDY    64  59  82 SW12G18   29.68S
QUEBEC CITY    MOCLDY    63  61  94 W10       29.58R
SHERBROOKE     PTCLDY    70  59  68 W13G24    29.68R

_____REGIONAL ONTARIO LOCATIONS_____


CITY           SKY/WX    TMP DP  RH WIND       PRES   REMARKS
OTTAWA         MOCLDY    64  63  94 SW6       29.71R

______KEY______
VSB  - VISIBILITY IN MILES
WCI  - WIND CHILL INDEX
HX   - HEAT INDEX
$$
NNNN



USA.gov is the U.S. government's official web portal to all federal, state and local government web resources and services.